Wind_Speed
11 10 9 8 8 7 6 5 5 6 7 3 3 5 8 9 11 11 12 13 14 13 12 13 14 14 14 14 14 13 12 11 9 8 7 7 6 6 6 5 4 3 3 3
14 12 11 11 11 10 8 6 5 7 7 4 4 5 7 9 10 10 11 11 12 13 12 12 13 13 14 14 14 13 13 12 11 9 8 8 7 7 7 6 6 5 4 4
16 13 14 14 13 12 10 10 9 8 7 5 5 6 7 9 10 9 9 10 11 12 12 12 12 12 13 14 13 13 13 13 12 11 10 9 9 8 7 7 7 6 5 5
17 16 17 17 16 13 11 11 11 9 9 7 7 8 8 10 9 9 9 10 11 11 11 11 11 11 12 12 13 13 14 14 13 11 10 10 9 9 8 8 8 7 7 6
20 19 20 18 17 15 13 12 11 10 10 9 9 9 8 9 8 7 8 9 10 10 9 10 10 11 11 11 12 13 13 13 13 12 12 11 10 9 9 9 8 8 8 8
23 21 21 19 18 17 15 13 12 12 12 13 11 9 10 10 9 8 7 7 8 9 9 9 10 10 10 10 11 12 13 14 13 13 13 12 11 10 9 9 9 8 8 8
24 23 23 21 19 19 17 15 12 12 13 12 10 10 13 12 11 10 8 7 8 8 9 9 9 9 10 10 11 12 13 14 13 13 13 13 12 11 10 10 10 10 9 9
24 24 24 22 21 20 19 17 15 14 13 12 10 12 11 13 13 10 10 8 8 8 8 9 8 9 9 10 11 12 12 13 13 13 13 13 12 12 11 11 11 11 11 11
23 24 23 24 23 22 20 20 18 17 15 15 13 14 14 13 12 11 10 10 10 9 8 8 9 9 9 10 11 11 12 13 14 14 13 13 12 12 12 13 13 13 13 13
25 23 23 24 23 24 23 21 20 20 19 18 17 16 14 13 12 13 13 13 12 11 10 10 10 10 10 10 11 11 12 13 14 14 14 14 13 13 13 13 13 14 14 15
27 26 24 23 24 24 24 23 23 21 20 18 18 17 14 15 14 14 14 14 13 12 12 11 10 11 11 11 11 12 13 13 13 14 14 14 14 14 14 14 15 15 15 16
31 29 27 26 25 24 25 24 23 24 24 21 20 19 16 16 16 15 15 16 15 13 13 13 12 12 12 12 13 13 13 14 14 14 15 15 14 14 14 14 15 16 16 17
32 33 30 27 26 25 27 26 26 24 23 23 22 21 19 18 18 19 18 17 17 16 15 14 13 14 14 14 14 13 14 15 15 15 15 15 15 15 15 15 16 17 17 18
34 35 33 28 25 24 25 26 27 26 26 25 25 23 21 20 19 20 20 18 18 17 16 15 16 16 17 16 16 15 15 16 16 16 16 16 16 17 17 17 18 18 19 19
35 35 35 32 27 23 24 24 26 27 28 27 24 23 22 23 23 22 22 20 19 19 18 18 18 17 18 19 18 17 17 17 17 17 17 17 18 18 18 19 19 20 20 20
36 36 35 35 31 26 25 25 24 26 28 28 27 25 24 24 25 26 25 22 21 21 21 20 20 19 20 20 20 20 20 20 20 19 18 18 19 19 20 20 21 21 21 21
35 36 36 35 32 29 30 27 26 27 28 28 28 28 29 29 28 28 28 27 25 23 23 23 22 22 22 22 21 21 21 21 20 19 19 20 20 20 21 21 22 22 23 22
35 36 35 34 32 34 31 28 28 29 28 29 30 31 32 32 32 31 29 28 26 26 26 25 24 24 23 23 23 22 22 22 21 21 21 21 21 21 23 23 23 23 23 23
35 35 35 33 32 32 32 31 30 31 32 32 32 33 32 32 32 33 32 29 29 29 29 27 26 26 26 25 24 24 23 23 23 23 23 23 23 23 24 24 24 24 23 24
35 35 35 35 33 31 32 31 32 32 35 35 35 35 34 34 34 36 36 33 32 31 30 28 28 28 28 27 26 26 25 24 24 24 24 24 24 25 25 25 25 25 25 25
35 35 35 34 33 33 32 31 31 32 35 34 34 35 36 36 36 36 36 36 34 32 31 30 29 30 29 29 29 28 28 27 27 27 26 26 26 26 26 27 26 26 27 27
32 33 34 35 34 33 33 33 35 35 34 34 35 35 35 36 36 37 37 36 34 33 32 32 31 31 31 30 30 30 31 30 30 30 29 28 28 28 28 28 28 28 28 29
34 34 35 35 36 36 36 37 37 37 36 35 35 35 35 36 36 37 37 36 35 35 33 33 32 32 32 32 32 32 32 32 32 32 31 31 31 30 30 30 30 29 29 29
36 37 38 38 38 37 36 37 36 37 37 37 36 36 36 36 36 36 36 36 35 35 35 34 35 35 35 34 34 32 32 33 33 33 33 33 32 32 32 32 32 31 31 31
36 37 38 39 38 37 36 37 37 37 38 37 36 37 37 37 37 37 37 37 36 36 36 37 37 36 35 35 35 33 33 33 34 34 34 33 33 33 33 33 33 32 31 31
35 36 37 40 40 39 39 39 37 38 37 37 36 36 35 36 37 36 37 37 37 37 37 37 37 36 36 35 35 35 35 35 35 34 34 34 34 35 34 34 33 32 32 32
Wind_Direction
207 200 194 209 222 216 220 220 237 270 298 340 347 344 350 1 7 9 18 25 27 28 33 34 34 34 35 35 37 38 36 35 35 33 29 25 21 19 17 15 9 355 333 320
213 213 210 211 217 217 214 225 243 272 290 319 317 325 334 344 356 359 7 18 22 24 26 28 28 32 33 35 35 36 36 33 32 28 24 20 17 12 10 7 358 351 336 318
217 219 223 220 221 222 218 223 233 251 267 298 303 295 316 330 340 348 356 5 13 18 22 25 28 30 30 32 32 33 31 29 29 28 25 19 12 6 3 1 354 348 340 324
220 221 226 223 224 220 221 228 231 242 260 266 276 277 296 312 325 336 344 353 3 10 16 20 22 25 26 28 29 30 27 25 24 22 19 14 9 3 2 1 357 348 337 325
221 221 227 223 220 221 221 228 232 239 251 250 253 266 274 278 301 321 331 343 354 0 6 12 15 19 21 22 23 22 21 20 19 17 15 14 11 6 3 3 359 352 345 335
220 223 229 228 223 222 222 226 234 239 246 248 250 262 265 267 283 299 302 325 336 341 347 2 7 10 13 16 17 18 16 14 12 11 10 11 10 8 6 3 359 351 344 338
221 222 229 226 226 227 223 225 236 252 254 256 252 257 268 278 279 285 295 305 316 327 331 346 356 1 5 7 9 10 11 9 8 7 5 4 3 2 1 359 357 353 343 337
225 226 229 229 225 228 228 221 226 243 258 263 252 253 256 269 277 283 286 288 296 312 323 329 336 343 348 353 357 359 1 3 4 2 1 1 2 359 357 354 354 352 347 339
224 231 232 233 229 225 225 226 229 243 253 262 263 253 249 257 265 272 281 281 283 290 299 311 318 326 332 339 344 347 350 354 357 358 357 357 357 356 356 354 353 351 346 340
215 226 229 233 233 226 223 226 228 234 244 248 256 253 253 251 258 266 273 280 282 288 292 295 303 312 318 324 331 334 337 342 346 350 352 352 351 350 351 352 349 345 342 339
215 220 224 228 230 228 227 225 225 232 235 244 251 251 254 259 255 263 272 274 278 283 290 294 299 303 307 314 319 323 327 330 335 339 343 344 345 346 346 348 349 345 343 342
216 218 222 227 231 232 231 228 227 233 232 236 250 260 254 258 262 264 270 272 272 280 285 289 292 295 296 301 308 313 317 320 324 329 333 336 339 342 343 342 342 342 341 340
220 219 220 225 227 230 230 227 226 232 239 241 245 254 262 261 257 259 259 262 269 277 279 280 282 285 289 296 299 303 307 311 315 320 323 326 330 334 336 335 333 337 337 336
222 221 218 221 227 227 232 233 229 227 234 240 241 248 256 257 253 256 259 260 265 270 272 275 276 278 284 290 293 295 298 303 307 312 313 317 321 324 326 329 332 334 333 332
224 224 221 218 219 226 232 235 232 229 230 237 241 246 250 255 256 253 255 257 263 268 273 274 273 277 280 284 288 290 293 298 300 306 307 310 314 317 319 321 323 326 327 328
226 226 224 221 219 225 230 232 233 233 231 234 238 241 244 245 252 257 258 258 259 264 268 272 273 275 279 281 283 286 291 296 298 301 302 304 308 310 312 314 317 320 322 323
227 227 225 225 223 226 230 230 233 235 233 234 236 238 244 245 250 255 260 262 262 262 265 270 273 274 276 278 282 285 287 291 294 297 298 301 304 306 308 310 312 315 318 320
229 229 229 227 224 228 230 229 232 235 234 235 237 240 242 247 251 255 258 259 260 261 263 266 269 272 275 276 279 281 284 286 289 291 293 297 300 301 302 304 307 311 314 316
230 230 229 227 229 233 234 231 232 234 236 234 236 240 245 249 253 256 257 257 259 260 262 264 265 267 270 271 274 277 280 283 286 287 289 292 294 296 297 299 303 306 309 313
232 231 230 228 228 231 234 236 237 238 240 239 239 241 244 247 251 256 259 258 259 261 263 264 264 264 267 268 270 273 277 279 281 284 286 288 291 295 297 300 299 301 305 308
232 231 230 229 230 234 235 237 240 240 242 244 244 245 246 247 249 254 258 261 261 261 262 261 262 263 265 268 267 268 271 274 277 280 282 284 288 292 295 298 299 300 303 304
231 232 231 229 230 234 236 238 240 243 246 248 248 250 251 251 251 253 256 258 261 262 261 259 260 262 264 266 268 268 270 271 274 277 280 282 284 288 292 295 296 297 298 301
230 231 230 230 231 235 237 239 242 245 248 249 252 253 253 253 254 255 256 257 259 260 259 258 258 261 263 265 267 268 269 269 272 275 277 279 282 285 288 291 292 292 293 296
234 232 232 233 233 237 241 243 245 248 251 253 254 254 254 255 256 257 257 257 257 257 257 258 259 260 261 262 265 266 267 269 271 273 275 277 279 282 284 286 287 288 289 292
236 235 234 235 237 241 243 245 248 251 252 252 254 255 255 255 256 257 258 258 258 258 258 259 260 260 261 261 263 264 267 269 271 272 273 275 277 280 282 283 284 286 287 290
237 237 236 237 240 244 246 247 249 251 252 252 253 254 256 257 258 257 257 259 259 259 259 260 261 262 262 263 263 264 266 269 270 271 274 274 276 278 279 281 283 285 286 289
Height
5923 5925 5928 5932 5934 5936 5937 5937 5938 5937 5935 5934 5934 5932 5931 5929 5928 5926 5924 5923 5921 5919 5917 5916 5915 5914 5912 5910 5909 5908 5907 5905 5904 5904 5903 5902 5901 5900 5900 5899 5898 5898 5897 5897
5922 5924 5927 5930 5933 5934 5936 5937 5938 5937 5935 5935 5933 5933 5932 5931 5929 5928 5926 5924 5923 5921 5919 5918 5917 5915 5914 5912 5911 5910 5909 5907 5906 5905 5904 5903 5902 5901 5900 5899 5899 5898 5898 5897
5919 5924 5926 5928 5931 5932 5934 5936 5937 5937 5935 5935 5935 5933 5933 5932 5930 5929 5927 5926 5924 5923 5921 5920 5918 5917 5916 5915 5913 5912 5910 5909 5907 5906 5905 5904 5903 5902 5901 5900 5899 5898 5897 5897
5916 5921 5923 5925 5928 5929 5932 5934 5934 5935 5934 5934 5935 5934 5932 5932 5930 5929 5928 5926 5925 5924 5923 5922 5920 5919 5918 5916 5915 5914 5912 5910 5909 5907 5906 5904 5903 5902 5901 5900 5899 5898 5897 5896
5914 5917 5919 5922 5925 5927 5930 5931 5932 5933 5933 5933 5933 5933 5932 5931 5930 5929 5928 5927 5926 5925 5923 5923 5922 5920 5919 5918 5917 5915 5914 5912 5910 5908 5907 5905 5903 5902 5901 5900 5899 5898 5897 5896
5910 5914 5916 5918 5922 5924 5927 5928 5929 5930 5930 5931 5932 5932 5930 5929 5928 5928 5927 5927 5926 5925 5924 5923 5922 5921 5920 5919 5918 5916 5915 5913 5911 5910 5908 5906 5904 5903 5901 5900 5899 5898 5896 5895
5905 5909 5912 5915 5918 5921 5923 5925 5927 5928 5928 5928 5930 5931 5930 5928 5928 5926 5927 5927 5926 5925 5924 5923 5923 5922 5921 5920 5919 5918 5916 5914 5912 5911 5909 5907 5905 5903 5902 5900 5899 5898 5896 5895
5901 5905 5908 5910 5914 5917 5920 5923 5925 5927 5927 5927 5928 5929 5928 5928 5927 5926 5926 5926 5926 5925 5925 5923 5923 5922 5921 5921 5919 5918 5917 5915 5913 5911 5909 5908 5906 5904 5903 5901 5899 5898 5896 5894
5898 5902 5905 5906 5909 5913 5916 5919 5923 5925 5925 5926 5925 5926 5925 5925 5925 5925 5925 5925 5924 5924 5924 5923 5922 5922 5921 5920 5920 5918 5917 5916 5914 5912 5910 5908 5906 5905 5903 5901 5899 5898 5896 5894
5893 5897 5900 5902 5905 5907 5912 5915 5919 5920 5922 5923 5923 5922 5922 5921 5922 5922 5923 5923 5922 5923 5922 5922 5921 5921 5920 5920 5919 5918 5917 5915 5914 5912 5910 5908 5906 5904 5903 5901 5899 5897 5895 5893
5886 5891 5895 5898 5899 5903 5907 5910 5913 5915 5917 5918 5920 5920 5919 5918 5918 5919 5920 5919 5919 5920 5920 5920 5920 5919 5919 5918 5918 5917 5916 5915 5913 5912 5910 5908 5906 5904 5902 5900 5899 5896 5894 5892
5879 5884 5888 5892 5895 5899 5902 5905 5909 5911 5913 5914 5915 5918 5915 5916 5915 5915 5918 5918 5916 5917 5918 5918 5918 5917 5916 5916 5916 5916 5915 5914 5912 5911 5909 5908 5906 5904 5902 5900 5898 5895 5893 5891
5872 5876 5881 5886 5891 5893 5895 5899 5903 5907 5909 5910 5912 5915 5911 5913 5912 5911 5912 5914 5914 5914 5915 5916 5915 5915 5914 5914 5914 5913 5912 5911 5910 5909 5908 5906 5905 5903 5901 5899 5896 5894 5892 5890
5864 5869 5874 5880 5884 5887 5890 5893 5897 5901 5904 5905 5908 5909 5908 5908 5908 5908 5907 5909 5910 5911 5912 5912 5912 5912 5912 5911 5911 5910 5909 5909 5908 5907 5906 5905 5903 5901 5899 5897 5895 5892 5890 5888
5857 5861 5866 5872 5877 5881 5884 5887 5890 5893 5897 5900 5902 5904 5903 5903 5903 5903 5903 5904 5906 5906 5907 5908 5908 5908 5908 5908 5908 5907 5906 5905 5905 5904 5903 5902 5901 5899 5897 5895 5893 5890 5888 5885
5849 5854 5859 5864 5870 5874 5877 5881 5884 5887 5890 5893 5895 5897 5897 5896 5896 5897 5898 5899 5901 5902 5903 5903 5903 5904 5904 5904 5904 5904 5903 5902 5902 5901 5900 5899 5897 5896 5894 5892 5890 5888 5885 5882
5842 5847 5852 5857 5864 5867 5870 5875 5878 5880 5884 5886 5888 5891 5891 5891 5891 5892 5893 5895 5895 5897 5898 5899 5899 5900 5900 5900 5900 5899 5899 5898 5898 5897 5896 5895 5893 5892 5890 5888 5886 5884 5882 5879
5835 5840 5845 5850 5856 5858 5865 5868 5871 5873 5876 5879 5881 5883 5883 5884 5885 5885 5887 5889 5890 5892 5893 5894 5894 5894 5894 5894 5894 5895 5894 5894 5893 5892 5891 5890 5889 5888 5886 5884 5882 5880 5878 5875
5828 5833 5838 5843 5847 5852 5857 5860 5863 5865 5867 5870 5872 5874 5876 5877 5878 5878 5880 5882 5884 5885 5886 5887 5888 5888 5889 5889 5889 5889 5889 5888 5888 5887 5886 5885 5884 5883 5881 5879 5877 5876 5874 5871
5821 5825 5831 5835 5840 5844 5849 5852 5853 5857 5858 5860 5863 5866 5868 5870 5871 5871 5872 5874 5876 5878 5879 5880 5881 5882 5882 5882 5882 5883 5883 5882 5882 5881 5881 5880 5879 5877 5876 5874 5872 5871 5869 5867
5813 5817 5822 5827 5832 5836 5840 5842 5845 5849 5849 5851 5854 5857 5860 5861 5863 5863 5865 5866 5868 5870 5871 5872 5873 5874 5874 5875 5875 5875 5875 5875 5875 5875 5874 5874 5873 5871 5870 5868 5866 5865 5863 5861
5806 5811 5816 5820 5824 5830 5831 5834 5836 5838 5840 5843 5845 5848 5850 5852 5853 5855 5856 5857 5859 5861 5863 5864 5865 5866 5867 5867 5867 5867 5867 5868 5868 5867 5867 5867 5866 5865 5864 5862 5861 5859 5857 5855
5799 5805 5808 5813 5817 5819 5822 5824 5826 5829 5832 5834 5837 5839 5841 5842 5844 5846 5847 5849 5851 5852 5854 5855 5856 5857 5858 5859 5859 5859 5859 5859 5860 5860 5860 5859 5859 5858 5857 5855 5854 5852 5850 5848
5790 5795 5799 5803 5806 5809 5812 5815 5817 5820 5823 5825 5828 5830 5832 5833 5835 5836 5838 5840 5842 5843 5845 5846 5847 5848 5849 5850 5850 5850 5850 5850 5851 5851 5851 5851 5850 5849 5848 5847 5846 5845 5843 5841
5782 5786 5789 5793 5798 5800 5803 5806 5809 5811 5814 5816 5818 5820 5822 5823 5825 5827 5828 5830 5832 5834 5835 5836 5837 5838 5839 5840 5841 5842 5842 5842 5842 5842 5842 5842 5841 5841 5840 5839 5838 5837 5835 5834
5775 5778 5782 5785 5789 5792 5794 5798 5800 5802 5804 5806 5808 5810 5812 5813 5814 5816 5818 5820 5822 5824 5825 5826 5827 5828 5829 5831 5832 5832 5833 5833 5833 5833 5833 5833 5832 5832 5831 5830 5829 5828 5826 5825